Home   Weather   Wiener Neustadt   Past weeks
Flag for Austria

Past Weather in Wiener Neustadt, Lower Austria, Austria — Yesterday and Last 2 Weeks

Now
64 °F

Mild.


Feels Like: 64 °F
Forecast: 84 / 62 °F
Wind: 2 mph from Northwest

Location: Eisenstadt

Current Time: Jun 18, 2019 at 7:02:15 am

Latest Report: Jun 18, 2019 at 6:00 am


Visibility: N/A

Pressure: 30.04 "Hg

Humidity: 78%

Dew Point: 56 °F

Location of Wiener NeustadtLocation

Past Weather in Wiener Neustadt — Graph

°F

Wiener Neustadt Temperature Yesterday

Maximum temperature yesterday: 79 °F (at 4:00 pm)
Minimum temperature yesterday: 65 °F (at 6:00 am)
Average temperature yesterday: 72 °F

High & Low Weather Summary for the Past Weeks

 TemperatureHumidityPressure
High91 °F (Jun 15, 2:00 pm)92% (Jun 6, 5:00 am)30.25 "Hg (Jun 6, 5:00 am)
Low58 °F (Jun 3, 5:00 am)31% (Jun 9, 5:00 pm)29.74 "Hg (Jun 5, 6:00 pm)
Average74 °F62%29.93 "Hg
* Reported Jun 3 5:00 am — Jun 18 5:00 am, Wiener Neustadt. Weather by CustomWeather, © 2019

Note: Actual official high and low records may vary slightly from our data, if they occured in-between our weather recording intervals... More about our weather records

Advertising

Wiener Neustadt Weather History for the Previous 24 Hours

Scroll right to see more
 ConditionsComfort  
Time TempWeatherWind HumidityBarometerVisibility
5:00 am
Tue, Jun 18
64 °FScattered clouds.3 mph76%30.03 "Hg12 mi
4:00 am64 °FMild.5 mph76%30.03 "HgN/A
3:00 am64 °FMild.2 mph80%30.04 "HgN/A
1:00 am67 °FMild.5 mph69%30.05 "HgN/A
12:00 am69 °FMild.5 mph65%30.05 "HgN/A
11:00 pm
Mon, Jun 17
70 °FPassing clouds.3 mph64%30.05 "Hg12 mi
10:00 pm71 °FMild.5 mph62%30.05 "HgN/A
9:00 pm73 °FMild.3 mph59%30.03 "HgN/A
8:00 pm75 °FOvercast.3 mph55%30.02 "Hg12 mi
6:00 pm77 °FWarm.3 mph52%30.03 "HgN/A
5:00 pm78 °FOvercast.5 mph50%30.03 "Hg12 mi
4:00 pm79 °FWarm.5 mph50%30.05 "HgN/A
3:00 pm79 °FWarm.5 mph51%30.06 "HgN/A
2:00 pm77 °FWarm.6 mph52%30.06 "HgN/A
1:00 pm76 °FMild.6 mph55%30.08 "HgN/A
12:00 pm75 °FMild.6 mph55%30.08 "HgN/A
11:00 am74 °FPartly sunny.3 mph57%30.08 "Hg12 mi
10:00 am72 °FMild.6 mph55%30.09 "HgN/A
9:00 am70 °FMild.5 mph59%30.09 "HgN/A
7:00 am67 °FMild.5 mph65%30.08 "HgN/A
Weather by CustomWeather, © 2019

See weather overview